Regional Weather Roundup
Issued by NWS

Home | Current Version | Previous Version | Text Only | Print | Product List | Glossary Off
Versions: 1 2 3 4 5 6 7 8 9 10 11 12 13 14 15 16 17 18 19 20 21 22 23 24 25 26 27 28 29 30 31 32 33 34 35 36 37 38 39 40 41 42 43 44 45 46 47 48 49 50

000
ASUS45 KBOU 030307
RWRCO

WEATHER ROUNDUP FOR COLORADO
NATIONAL WEATHER SERVICE DENVER/BOULDER CO
900 PM MDT WED SEP 02 2015

NOTE: "FAIR" INDICATES FEW OR NO CLOUDS BELOW 12000 FEET WITH NO
SIGNIFICANT WEATHER AND/OR OBSTRUCTIONS TO VISIBILITY.

COZ001>005-013-030-031-030400-
...NORTHWEST COLORADO...

CITY           SKY/WX    TMP DP  RH WIND       PRES   REMARKS
CRAIG          PTCLDY    60  50  69 SE7       30.13R
HAYDEN         NOT AVBL
MEEKER         PTCLDY    64  48  56 N5        30.14R
MOUNT WERNER   NOT AVBL
STEAMBOAT SPGS PTCLDY    62  45  54 CALM      30.18R
WALDEN         PTCLDY    59  39  47 SW6       30.27R
$$

COZ006>008-011-030400-
...WEST CENTRAL VALLEYS...

CITY           SKY/WX    TMP DP  RH WIND       PRES   REMARKS
GRAND JUNCTION PTCLDY    75  51  43 E3        30.01R
MONTROSE       CLOUDY    73  48  41 S15       30.13R
EAGLE          CLOUDY    72  46  40 W8        30.18S
RIFLE          PTCLDY    70  51  51 E10       30.09R
DELTA          PTCLDY    75  49  39 N7        30.08R
NUCLA          MOCLDY    77  37  24 S7        30.16R
$$

COZ017>023-064>068-030400-
...SOUTHWEST COLORADO...

CITY           SKY/WX    TMP DP  RH WIND       PRES   REMARKS
DURANGO        CLOUDY    70  45  40 CALM      30.23R
CORTEZ         MOCLDY    71  50  47 CALM      30.15R
PAGOSA SPRINGS CLOUDY    63  43  48 NE5       30.31R
TELLURIDE      PTCLDY    59  48  68 SE5       30.41R
WOLF CREEK PAS NOT AVBL
$$

COZ009-010-012-014-032>034-037-058>063-030400-
...CENTRAL COLORADO...

CITY           SKY/WX    TMP DP  RH WIND       PRES   REMARKS
ASPEN          CLOUDY    66  44  45 SE10      30.27R
BUENA VISTA    CLOUDY    67  34  30 S5        30.30R
COPPER MTN     MOCLDY    54  34  47 S14G20    30.59S
BERTHOUD PASS  FAIR      45  34  65 MISG      30.64R
COTTONWOOD PAS CLOUDY    61  32  33 W13       30.44R
GUNNISON       CLOUDY    57  48  72 NE5       30.34R
KREMMLING      MOCLDY    61  45  55 CALM      30.24R
LEADVILLE      CLOUDY    50  45  83 N3        30.44R
MONARCH PASS   CLOUDY    48  34  57 W16       30.69S
SALIDA         CLOUDY    69  39  33 SW6       30.33R
SUNLIGHT       MOCLDY    50  46  87 CALM      30.52R
WILKERSON PASS MOCLDY    52  34  50 W7        30.56R
$$

COZ069>075-030400-
...SAN LUIS VALLEY/SANGRE DE CRISTO MOUNTAINS...

CITY           SKY/WX    TMP DP  RH WIND       PRES   REMARKS
ALAMOSA        CLOUDY    59  49  69 W20       30.30R
LA VETA PASS   CLOUDY    50  41  71 MISG      30.48R
SAGUACHE       MOCLDY    59  45  58 NW9       30.32R
$$

COZ035-036-038>040-030400-
...NORTHERN COLORADO FRONT RANGE...

CITY           SKY/WX    TMP DP  RH WIND       PRES   REMARKS
DENVER INTL AP MOCLDY    73  41  31 S12       30.03R
DMNS CITY PARK   N/A     76  43  30 SW5G12    30.04R
AURORA         MOCLDY    73  42  32 S12       30.07R
FRONT RANGE AP NOT AVBL
ERIE MUNI ARPT PTCLDY    72  42  33 CALM      30.02R
BOULDER MUN AP PTCLDY    79  39  24 W7        30.02R
CENTENNIAL     MOCLDY    76  40  27 S6        30.08R
BROOMFIELD     MOCLDY    72  41  33 W9        30.05R
FORT COLLINS   PTCLDY    73  45  35 CALM      30.00R
LONGMONT       PTCLDY    70  51  52 W5        30.03R
$$

COZ041-046-047-076>085-087-088-030400-
...PIKES PEAK/PALMER DIVIDE AND SOUTHERN FOOTHILLS...

CITY           SKY/WX    TMP DP  RH WIND       PRES   REMARKS
COLO. SPRINGS  CLOUDY    74  44  34 E6        30.13R
A. F. ACADEMY  CLOUDY    71  44  37 CALM      30.15R
ELLICOTT         N/A    N/A N/A N/A SE9       30.12R
FALCON         CLOUDY    70  42  36 MISG      30.20R
FORT CARSON    CLOUDY    76  43  30 SW5       30.09R
LIMON          CLOUDY    62  51  67 CALM      30.05R
MONUMENT HILL  MOCLDY    64  43  45 S7        30.19R
TRINIDAD       CLOUDY    75  45  34 SW9       30.12R
$$

COZ042>045-048>051-090-091-030400-
...NORTHEAST COLORADO...

CITY           SKY/WX    TMP DP  RH WIND       PRES   REMARKS
GREELEY ARPT   PTCLDY    70  52  52 NE8       29.99R
AKRON          PTCLDY    76  40  27 S5        29.98R
BURLINGTON     MOCLDY    73  49  42 NW7       29.95R
WRAY           CLOUDY    79  46  31 NE5       29.90R
STERLING       PTCLDY    73  50  43 S3        29.92R
HOLYOKE        PTCLDY    73  59  60 E3        29.92R
FORT MORGAN    PTCLDY    77  37  23 SE6       29.97R
$$

COZ086-089-092>099-030400-
...SOUTHEAST COLORADO...

CITY           SKY/WX    TMP DP  RH WIND       PRES   REMARKS
PUEBLO         CLOUDY    81  44  27 NE6       29.99R
LA JUNTA       CLOUDY    82  45  27 SW9       29.95R
LAMAR          MOCLDY    82  51  34 S14       29.89R
SPRINGFIELD      N/A     79  54  41 S17       29.99R
$$




USA.gov is the U.S. government's official web portal to all federal, state and local government web resources and services.